weather.gov     
National Weather Service

Regional Weather Roundup
NWS Homepage
This page is being discontinued on March 12, 2014.
The same data is available at this site. Please update your bookmarks.
Thank you, and we apologize for the inconvenience.
Please send an email to SR-SRH.Webmaster@noaa.gov with any concerns.


Current Version
Previous Version:    01  02  03  04  05  06  07  08  09  10  11  12  13  14  15  16  17  18  19  20  21  22  23  24  25  26  27  28  29  30  
   31  32  33  34  35  36  37  38  39  40  41  42  43  44  45  46  47  48  49  50  51  52  53  54  55  56  57  58  59  60  
[Printable]
466
ASUS44 KFWD 220715
RWRTX
NORTH TEXAS HOURLY WEATHER ROUNDUP
NATIONAL WEATHER SERVICE FORT WORTH TX
200 AM CDT TUE JUL 22 2014

NOTE: "FAIR" INDICATES FEW OR NO CLOUDS BELOW 12,000 FEET WITH NO
SIGNIFICANT WEATHER AND/OR OBSTRUCTIONS TO VISIBILITY.

TXZ118-119-220800-
DALLAS/FORT WORTH METROPLEX

CITY           SKY/WX    TMP DP  RH WIND       PRES   REMARKS
DFW AIRPORT    MOCLDY    82  72  71 SE8       30.03F
DALLAS LOVE    PTCLDY    82  72  71 SE12      30.03F
FTW MEACHAM    PTCLDY    82  71  69 SE6       30.02F
DAL-EXECUTIVE  CLEAR     79  71  76 SE3       30.03F
FTW-ALLIANCE   PTCLDY    78  71  79 CALM      30.02F
FTW-NAS-JRB    PTCLDY    84  70  62 SE6       30.06F
FTW-SPINKS     CLEAR     77  72  82 SE5       30.04F HAZE
ARLINGTON      CLEAR     79  71  76 E3        30.03F
GRAND PRAIRIE  PTCLDY    80  70  70 E3        30.05S
ADDISON        PTCLDY    82  71  68 SE12      30.06F
MESQUITE       CLEAR     76  72  87 SE3       30.04S
LANCASTER      CLEAR     74  70  85 CALM      30.05S
$$

TXZ091>094-102>105-117-120-121-131>134-220800-
NORTH CENTRAL TEXAS

CITY           SKY/WX    TMP DP  RH WIND       PRES   REMARKS
SHRMAN/DENISON MOCLDY    78  72  81 SE7       30.05F
GAINESVILLE    MOCLDY    76  71  87 E7        30.06F
BOWIE          MOCLDY    76  73  88 SE3       30.04F
BRIDGEPORT     MOCLDY    79  69  72 S7        30.04F
DECATUR        MOCLDY    77  70  78 E3        30.04F
DENTON         MOCLDY    79  72  79 SE7       30.03F
MCKINNEY       PTCLDY    77  73  87 SE3       30.04F
GREENVILLE     CLEAR     73  72  94 E3        30.06S FOG
ROCKWALL       CLEAR     76  73  88 SE5       30.04S
TERRELL        CLEAR     78  74  87 SE3       30.05S
CLEBURNE       CLEAR     81  75  83 SE7       30.04F
GRANBURY       PTCLDY    81  72  73 SE3       30.03F
$$

TXZ083>090-098>101-113>116-127>130-139>142-154-155-220800-
WESTERN NORTH TEXAS

CITY           SKY/WX    TMP DP  RH WIND       PRES   REMARKS
WICHITA FALLS  CLOUDY    78  72  81 S9        30.01F
WF-KICKAPOO    CLOUDY    79  71  75 SE7       30.03F
VERNON         CLOUDY    81  68  65 SE3       30.03F
ABILENE        PTCLDY    79  69  71 SE8       30.07F
ABILENE-DYESS  PTCLDY    80  68  66 SE8       30.05F HAZE
BRECKENRIDGE   PTCLDY    82  69  66 S7        30.03F
MINERAL WELLS  PTCLDY    78  71  79 SE9       30.02F
STEPHENVILLE   CLEAR     78  71  77 CALM      30.08F
COMANCHE       CLEAR     76  71  83 S5        30.06F
BROWNWOOD      CLOUDY    77  72  83 CALM      30.05F
COLEMAN        PTCLDY    78  69  73 CALM      30.07F
BRADY          CLEAR     79  70  73 E7        30.07R
$$

TXZ143>147-156>162-174-175-220800-
CENTRAL TEXAS

CITY           SKY/WX    TMP DP  RH WIND       PRES   REMARKS
WACO           CLEAR     79  74  84 E7        30.02S
WACO-MCGREGOR  PTCLDY    79  72  78 SE5       30.04S
HILLSBORO      CLEAR     79  72  77 E8        30.03S
CORSICANA      CLEAR     80  73  79 SE8       30.04F
MEXIA          CLEAR     77  74  91 E3        30.03S
HEARNE         CLEAR     82  77  84 SE5       30.02S
CAMERON        CLEAR     79  75  89 CALM      30.01S
TEMPLE         CLEAR     79  70  73 E5        30.03S
KILLEEN        CLEAR     81  73  78 SE6       30.03S
KILLEEN-SKYLRK CLEAR     81  70  69 E5        30.03S
FORT HOOD      CLEAR     82  73  74 E5        30.03S
GATESVILLE     CLEAR     79  73  83 MISG      30.05F
HAMILTON       CLEAR     78  72  79 SE6       30.06S
LAMPASAS       CLEAR     78  73  85 CALM      30.04S
$$

TXZ095>097-106>112-122>126-135>138-148>153-164>167-220800-
EAST TEXAS

CITY           SKY/WX    TMP DP  RH WIND       PRES   REMARKS
PARIS          CLEAR     73  66  78 SE5       30.08R
SULPHUR SPRNGS CLEAR     76  71  84 SE3       30.08S
CLARKSVILLE    CLEAR     74  71  88 CALM      30.06F
MOUNT PLEASANT   N/A     71  70  96 CALM      30.07F
GILMER         CLEAR     73  73 100 CALM      30.07F FOG
MINEOLA        CLEAR     73  73 100 CALM      30.06F FOG
TYLER          CLEAR     77  71  82 E5        30.05S
LONGVIEW       CLEAR     73  70  90 CALM      30.05S FOG
MARSHALL       CLEAR     73  71  92 CALM      30.07S
ATHENS         CLEAR     75  72  88 CALM      30.04S FOG
JACKSONVILLE   CLEAR     76  73  90 CALM      30.08S FOG
HENDERSON      CLEAR     73  71  96 CALM      30.07R FOG
NACOGDOCHES    PTCLDY    75  72  88 E3        30.05S
LUFKIN         MOCLDY    80  74  81 NE5       30.03S
$$

SUPPLEMENTAL OBSERVATIONS (CENTRAL)

CITY           SKY/WX    TMP DP  RH WIND       PRES   REMARKS
LAKE TEXOMA      N/A     75  73  94 E3          N/A
PAT MAYSE LAKE   N/A     73  68  83 E2          N/A
GREENVILLE       N/A     75  70  83 SE3         N/A
CEDAR HILL       N/A     81  73  78 SE3         N/A
PALESTINE        N/A     75  72  88 CALM        N/A
LAKE LIMESTONE   N/A     79  77  94 E5          N/A
MCGREGOR         N/A     79  73  83 E3          N/A
TEMPLE           N/A     79  73  83 E2          N/A
$$

SUPPLEMENTAL OBSERVATIONS (WEST)

CITY           SKY/WX    TMP DP  RH WIND       PRES   REMARKS
MILLERS CREEK    N/A     82  66  57 S12         N/A
POSSUM KINGDOM   N/A     81  70  69 SE5         N/A
GRANBURY         N/A     81  72  74 SE5         N/A
COMANCHE         N/A     77  70  78 S5          N/A
HAMBY            N/A     81  68  65 SE6         N/A
COLORADO BEND    N/A     79  70  73 SE5         N/A
$$

SUPPLEMENTAL OBSERVATIONS (EAST)

CITY           SKY/WX    TMP DP  RH WIND       PRES   REMARKS
CLARKSVILLE      N/A     72  66  83 E3          N/A
TEXARKANA        N/A     66  64  94 CALM        N/A
LINDEN           N/A     70  66  88 CALM        N/A
CADDO LAKE       N/A     66  64  94 CALM        N/A
GILMER           N/A     72  68  88 CALM        N/A
HENDERSON        N/A     73  70  88 CALM        N/A
LUFKIN           N/A     79  77  94 MISG        N/A
N SABINE NF      N/A     70  68  94 MISG        N/A
S SABINE NF      N/A     73  70  88 CALM        N/A
$$

SUPPLEMENTAL OBSERVATIONS ARE A COLLECTION OF AUTOMATED INSTRUMENTS
THAT ARE MAINTAINED BY A VARIETY OF FEDERAL AND STATE AGENCIES.
CERTAIN ELEMENTS...SUCH AS HUMIDITY VALUES AND SUSTAINED WIND
SPEEDS...MAY BE APPROXIMATED.





U.S. Dept. of Commerce
NOAA National Weather Service
1325 East West Highway
Silver Spring, MD 20910
E-mail: w-nws.webmaster@noaa.gov
Page last modified: May 16, 2007
NATIONAL WEATHER SERVICE: for Safety, for Work, for Fun - FOR LIFE